New Braunfels, TX

12:21 PM CST on February 25, 2017 (GMT -0600)
New Braunfels Municipal

Weather History for KBAZ - February, 2017

Change the Weather History Date:

Friday, February 17, 2017

  Actual Average (KRND) Record (KRND)
Temperature  
Mean Temperature 62 °F -  
Max Temperature 77 °F 65 °F 82 °F (2000)
Min Temperature 46 °F 45 °F 33 °F (1997)
Degree Days  
Heating Degree Days 4    
Growing Degree Days 12 (Base 50)    
Moisture  
Dew Point 50 °F    
Average Humidity 69    
Maximum Humidity 90    
Minimum Humidity 33    
Precipitation  
Precipitation 0.00 in - - ()
Sea Level Pressure  
Sea Level Pressure 29.83 in    
Wind  
Wind Speed 8 mph (SSW)    
Max Wind Speed 18 mph    
Max Gust Speed 25 mph    
Visibility 10 miles    
Events      
Averages and records for this station are not official NWS values.
T = Trace of Precipitation, MM = Missing Value Source: NWS Daily Summary

Daily Weather History Graph

Daily Weather History Graph

Search for Another Location

Airport or City:

Trip Planner

Search our weather history database for the weather conditions in past years. The results will help you decide how hot, cold, wet, or windy it might be!

Date:

Astronomy

Feb. 17, 2017 Rise Set
Actual Time 7:09 AM CST 6:23 PM CST
Civil Twilight 6:45 AM CST 6:47 PM CST
Nautical Twilight 6:17 AM CST 7:15 PM CST
Astronomical Twilight 5:49 AM CST 7:43 PM CST
Moon No Moon Rise 11:16 AM CST (2/17)
Length of Visible Light 12h 02m
Length of Day
11h 13m
Waning Gibbous, 60% of the Moon is Illuminated
Feb 17
Waning Gibbous
Feb 18
Last Quarter
Feb 26
New
Mar 5
First Quarter
Mar 12
Full

Hourly Weather History & Observations

Time (CST) Temp. Dew Point Humidity Pressure Visibility Wind Dir Wind Speed Gust Speed Precip Events Conditions
12:51 AM 50.0 °F 43.0 °F 77% 29.99 in 10.0 mi SW 6.9 mph - N/A   Clear
1:51 AM 48.0 °F 43.0 °F 83% 29.97 in 10.0 mi WSW 5.8 mph - N/A   Clear
2:51 AM 46.9 °F 42.1 °F 83% 29.94 in 10.0 mi Calm Calm - N/A   Scattered Clouds
3:51 AM 46.9 °F 42.1 °F 83% 29.93 in 10.0 mi NW 3.5 mph - N/A   Clear
4:51 AM 48.0 °F 42.1 °F 80% 29.91 in 8.0 mi Calm Calm - N/A   Clear
5:51 AM 46.9 °F 43.0 °F 86% 29.91 in 10.0 mi North 3.5 mph - N/A   Clear
6:51 AM 48.0 °F 44.1 °F 86% 29.91 in 10.0 mi Calm Calm - N/A   Clear
7:51 AM 46.9 °F 44.1 °F 90% 29.92 in 10.0 mi Calm Calm - N/A   Clear
8:51 AM 55.9 °F 48.9 °F 77% 29.93 in 10.0 mi SSW 5.8 mph - N/A   Clear
9:51 AM 61.0 °F 54.0 °F 78% 29.93 in 10.0 mi SSW 9.2 mph - N/A   Partly Cloudy
10:51 AM 69.1 °F 54.0 °F 58% 29.90 in 10.0 mi SSW 18.4 mph - N/A   Clear
11:51 AM 72.0 °F 53.1 °F 51% 29.87 in 10.0 mi SW 17.3 mph 23.0 mph N/A   Partly Cloudy
12:51 PM 73.9 °F 52.0 °F 46% 29.83 in 10.0 mi SSW 15.0 mph 25.3 mph N/A   Partly Cloudy
1:51 PM 75.9 °F 50.0 °F 40% 29.78 in 10.0 mi SW 17.3 mph 21.9 mph N/A   Clear
2:51 PM 77.0 °F 50.0 °F 39% 29.75 in 10.0 mi SSW 17.3 mph - N/A   Clear
3:51 PM 77.0 °F 48.0 °F 36% 29.73 in 10.0 mi SW 13.8 mph - N/A   Clear
4:51 PM 77.0 °F 46.0 °F 33% 29.72 in 10.0 mi SW 13.8 mph 20.7 mph N/A   Clear
5:51 PM 73.9 °F 46.0 °F 37% 29.72 in 10.0 mi SSW 8.1 mph - N/A   Clear
6:51 PM 66.0 °F 45.0 °F 47% 29.73 in 10.0 mi South 5.8 mph - N/A   Clear
7:51 PM 62.1 °F 45.0 °F 53% 29.74 in 10.0 mi SSE 4.6 mph - N/A   Clear
8:51 PM 57.9 °F 46.0 °F 65% 29.76 in 10.0 mi SE 6.9 mph - N/A   Clear
9:51 PM 62.1 °F 57.9 °F 86% 29.76 in 10.0 mi SSE 13.8 mph - N/A   Clear
10:09 PM 62.1 °F 59.0 °F 90% 29.77 in 10.0 mi SSE 12.7 mph - N/A   Scattered Clouds
10:18 PM 63.0 °F 60.1 °F 90% 29.77 in 10.0 mi SSE 16.1 mph - N/A   Mostly Cloudy
10:42 PM 64.0 °F 61.0 °F 90% 29.77 in 10.0 mi SSE 13.8 mph - N/A   Overcast
10:51 PM 64.0 °F 61.0 °F 90% 29.76 in 10.0 mi SSE 16.1 mph - N/A   Overcast
11:51 PM 63.0 °F 60.1 °F 90% 29.76 in 10.0 mi South 12.7 mph - N/A   Overcast